Regional Weather Roundup
Issued by NWS

Home | Current Version | Previous Version | Text Only | Print | Product List | Glossary Off
Versions: 1 2 3 4 5 6 7 8 9 10 11 12 13 14 15 16 17 18 19 20 21 22 23 24 25 26 27 28 29 30 31 32 33 34 35 36 37 38 39 40 41 42 43 44 45 46 47 48 49 50

000
ASUS43 KDMX 011307
RWRIA

WEATHER ROUNDUP FOR IOWA
NATIONAL WEATHER SERVICE DES MOINES IA
800 AM CDT FRI AUG 01 2014

NOTE: "FAIR" INDICATES FEW OR NO CLOUDS BELOW 12,000 FEET WITH NO
SIGNIFICANT WEATHER AND/OR OBSTRUCTIONS TO VISIBILITY.

* - THESE STATIONS ARE NOT NWS STATIONS...THUS NOT UNDER NWS
QUALITY CONTROL.  THEY ALSO DO NOT REPORT WEATHER SUCH
AS PRECIPITATION OR FOG.

IAZ001>003-012>014-020>022-031>034-043>046-011400-
   NORTHWEST IOWA

CITY           SKY/WX    TMP DP  RH WIND       PRES   REMARKS
CARROLL *      SUNNY     59  57  94 CALM      30.10R
CHEROKEE *     SUNNY     57  57 100 CALM      30.11R
DENISON *      SUNNY     59  59 100 CALM      30.08R
LE MARS *      SUNNY     59  57  94 CALM      30.11R
ORANGE CITY *  SUNNY     64  57  77 CALM      30.11R
SHELDON *      MOSUNNY   59  59 100 CALM      30.10R FOG
SIOUX CITY     SUNNY     61  59  93 NW3       30.10R FOG
SPENCER        SUNNY     62  59  90 NW3       30.11R
STORM LAKE *   SUNNY     63  63 100 CALM      30.11R
$$

IAZ055>058-069>071-079>083-090>094-011400-
   SOUTHWEST IOWA

CITY           SKY/WX    TMP DP  RH WIND       PRES   REMARKS
ATLANTIC *     PTSUNNY   64  63  94 NE5       30.09R
AUDUBON *      SUNNY     64  61  88 CALM      30.11R
CLARINDA *     LGT RAIN  64  64 100 CALM      30.11S
COUNCIL BLFS * PTSUNNY   64  64 100 SE5       30.07R
CRESTON *      MOSUNNY   66  63  88 CALM      30.10R
HARLAN  *      MOSUNNY   61  61 100 NE3       30.12R FOG
LAMONI         PTSUNNY   67  61  81 E5        30.09S
RED OAK *      CLOUDY    66  63  88 CALM      30.08S
SHENANDOAH *   CLOUDY    66  63  88 SE9       30.08S
$$

IAZ047>049-059>061-072>074-084-011400-
   CENTRAL IOWA

CITY           SKY/WX    TMP DP  RH WIND       PRES   REMARKS
AMES           SUNNY     62  59  90 CALM      30.09S
ANKENY *       SUNNY     63  61  94 CALM      30.09S
CHARITON *     PTSUNNY   66  63  88 W6        30.09R
DES MOINES     SUNNY     69  62  78 NE3       30.08S
GRINNELL*      SUNNY     63  59  88 CALM      30.09S
KNOXVILLE *    SUNNY     66  63  88 N5        30.08R
MARSHALLTOWN   SUNNY     62  60  93 W5        30.08S
PELLA *        SUNNY     66  63  88 CALM      30.10S
PERRY *          N/A     63  61  94 N3        30.09S
$$

IAZ004>006-015-016-023>025-035-036-011400-
   NORTH CENTRAL IOWA

CITY           SKY/WX    TMP DP  RH WIND       PRES   REMARKS
ALGONA *       SUNNY     66  61  82 NW5       30.10R
CLARION *      SUNNY     63  61  94 CALM      30.10R
ESTHERVILLE    SUNNY     62  60  93 CALM      30.10R
FORT DODGE *   SUNNY     61  57  88 CALM      30.11R
MASON CITY     SUNNY     64  61  90 W3        30.11R
FOREST CITY *  SUNNY     61  61 100 CALM      30.10R
IOWA FALLS *     N/A     63  59  88 W3        30.11R
$$

IAZ007>011-017>019-026>030-037>042-050>054-066-011400-
   NORTHEAST IOWA

CITY           SKY/WX    TMP DP  RH WIND       PRES   REMARKS
CEDAR RAPIDS   MOSUNNY   68  64  87 CALM      30.07S
CHARLES CITY * SUNNY     63  61  94 CALM      30.10R FOG
CLINTON *      MOSUNNY   66  61  82 SW3       30.12R
DECORAH *      SUNNY     61  59  94 CALM      30.08R
DUBUQUE        SUNNY     63  61  93 CALM      30.09R
MONTICELLO *   SUNNY     63  61  94 CALM      30.08R
OELWEIN *      SUNNY     63  61  94 CALM      30.09R
WATERLOO       SUNNY     63  60  90 CALM      30.07S
$$

IAZ064-065-067-068-078-011400-
   EAST CENTRAL IOWA

CITY           SKY/WX    TMP DP  RH WIND       PRES   REMARKS
DAVENPORT      MOSUNNY   68  60  75 S8        30.10R
IOWA CITY      SUNNY     67  62  84 CALM      30.09R
MT. PLEASANT * PTSUNNY   68  64  88 SE3       30.09R
MUSCATINE *    PTSUNNY   68  64  88 CALM      30.09R
QUAD CITIES    PTSUNNY   67  60  78 CALM      30.09R
$$

IAZ062-063-075>077-085>089-095>099-011400-
   SOUTHEAST IOWA

CITY           SKY/WX    TMP DP  RH WIND       PRES   REMARKS
BURLINGTON     LGT RAIN  66  63  90 SE9       30.09F
FAIRFIELD *    SUNNY     68  63  83 CALM      30.08R
FORT MADISON * CLOUDY    68  64  88 CALM      30.10R
KEOKUK *       CLOUDY    66  64  94 NE5       30.09R
OSKALOOSA *    PTSUNNY   64  63  94 CALM      30.09R FOG
CENTERVILLE *  SUNNY     64  64 100 CALM      30.10S
OTTUMWA        MOSUNNY   66  64  93 N3        30.06F
WASHINGTON *   MOSUNNY   64  64 100 CALM      30.08S FOG
$$

ABBREVIATIONS USED IN REMARKS
   TC - TEMPERATURES IN CELSIUS
  WCI - WIND CHILL INDEX
   HX - HEAT INDEX
  VSB - VISIBILITY
$$



USA.gov is the U.S. government's official web portal to all federal, state and local government web resources and services.